When you browse on this site, cookies collect data to enhance your experience and personalize the content and advertising you see.
Visit our Privacy Policy to learn more. By continuing to use the site, you agree to this use of cookies and data.
  • en Suisse
  • Liste des pays
  • À 7 jours
  • Température de l'eau
  • Carte météo
  • Widgets météo
  • user-avatar
    Se connecter

    Météo par heure à Spokan

    Ce jour, 29 Mai, Vendredi

    Heure Température Précipitation Vent Pression Humidité
    00:00 +16°C° 0 mm 1 m/s 703 mmHg 57%
    01:00 +15°C° 0 mm 1 m/s 703 mmHg 59%
    02:00 +15°C° 0 mm 1 m/s 703 mmHg 62%
    03:00 +14°C° 0 mm 1 m/s 703 mmHg 64%
    04:00 +14°C° 0 mm 1 m/s 703 mmHg 67%
    05:00 +15°C° 0 mm 1 m/s 703 mmHg 63%
    06:00 +18°C° 0 mm 1 m/s 704 mmHg 60%
    07:00 +20°C° 0 mm 1 m/s 704 mmHg 57%
    08:00 +22°C° 0 mm 1 m/s 704 mmHg 52%
    09:00 +24°C° 0 mm 1 m/s 704 mmHg 47%
    10:00 +27°C° 0 mm 1 m/s 704 mmHg 42%
    11:00 +28°C° 0 mm 1 m/s 704 mmHg 39%
    12:00 +29°C° 0 mm 1 m/s 704 mmHg 36%
    13:00 +30°C° 0 mm 1 m/s 704 mmHg 33%
    14:00 +30°C° 0 mm 1 m/s 703 mmHg 34%
    15:00 +30°C° 0 mm 1 m/s 702 mmHg 34%
    16:00 +30°C° 0 mm 1 m/s 702 mmHg 35%
    17:00 +28°C° 0 mm 1 m/s 702 mmHg 41%
    18:00 +24°C° 0 mm 0 m/s 701 mmHg 48%
    19:00 +23°C° 0 mm 0 m/s 701 mmHg 54%
    20:00 +21°C° 0 mm 0 m/s 701 mmHg 56%
    21:00 +22°C° 0 mm 1 m/s 701 mmHg 57%
    22:00 +21°C° 0 mm 1 m/s 701 mmHg 59%
    23:00 +20°C° 0 mm 1 m/s 700 mmHg 61%

    Demain, 30 Mai, Samedi

    Heure Température Précipitation Vent Pression Humidité
    00:00 +20°C° 0 mm 1 m/s 700 mmHg 63%
    01:00 +19°C° 0 mm 1 m/s 700 mmHg 65%
    02:00 +18°C° 0 mm 2 m/s 700 mmHg 65%
    03:00 +18°C° 0 mm 2 m/s 700 mmHg 66%
    04:00 +17°C° 0 mm 2 m/s 699 mmHg 66%
    05:00 +18°C° 0 mm 2 m/s 699 mmHg 64%
    06:00 +20°C° 0 mm 2 m/s 699 mmHg 62%
    07:00 +21°C° 0 mm 2 m/s 699 mmHg 60%
    08:00 +24°C° 0 mm 2 m/s 699 mmHg 55%
    09:00 +27°C° 0 mm 3 m/s 698 mmHg 50%
    10:00 +29°C° 0 mm 3 m/s 698 mmHg 46%
    11:00 +31°C° 0 mm 3 m/s 697 mmHg 42%
    12:00 +33°C° 0 mm 3 m/s 697 mmHg 38%
    13:00 +35°C° 0 mm 3 m/s 696 mmHg 34%
    14:00 +35°C° 0 mm 3 m/s 695 mmHg 34%
    15:00 +36°C° 0 mm 3 m/s 694 mmHg 35%
    16:00 +36°C° 0 mm 3 m/s 692 mmHg 35%
    17:00 +34°C° 0 mm 3 m/s 692 mmHg 40%
    18:00 +31°C° 0 mm 2 m/s 691 mmHg 45%
    19:00 +29°C° 0 mm 1 m/s 691 mmHg 50%
    20:00 +26°C° 0.3 mm 3 m/s 692 mmHg 61%
    21:00 +22°C° 0.3 mm 4 m/s 692 mmHg 72%
    22:00 +20°C° 0.3 mm 5 m/s 693 mmHg 82%
    23:00 +17°C° 0.2 mm 5 m/s 693 mmHg 83%

    Après-demain, 31 Mai, Dimanche

    Heure Température Précipitation Vent Pression Humidité
    00:00 +15°C° 0.2 mm 5 m/s 694 mmHg 84%
    01:00 +13°C° 0.2 mm 5 m/s 694 mmHg 85%
    02:00 +11°C° 0.4 mm 6 m/s 695 mmHg 85%
    03:00 +11°C° 0.4 mm 6 m/s 696 mmHg 85%
    04:00 +10°C° 0.4 mm 6 m/s 696 mmHg 84%
    05:00 +9°C° 0 mm 6 m/s 697 mmHg 83%
    06:00 +9°C° 0 mm 7 m/s 699 mmHg 81%
    07:00 +9°C° 0 mm 7 m/s 700 mmHg 80%
    08:00 +9°C° 0 mm 7 m/s 701 mmHg 73%
    09:00 +10°C° 0 mm 7 m/s 701 mmHg 67%
    10:00 +11°C° 0 mm 7 m/s 702 mmHg 61%
    11:00 +12°C° 0 mm 7 m/s 703 mmHg 56%
    12:00 +15°C° 0 mm 8 m/s 703 mmHg 52%
    13:00 +16°C° 0 mm 8 m/s 704 mmHg 47%
    14:00 +17°C° 0 mm 7 m/s 703 mmHg 46%
    15:00 +17°C° 0 mm 6 m/s 703 mmHg 45%
    16:00 +17°C° 0 mm 5 m/s 703 mmHg 44%
    17:00 +17°C° 0 mm 4 m/s 703 mmHg 49%
    18:00 +15°C° 0 mm 4 m/s 703 mmHg 53%
    19:00 +14°C° 0 mm 3 m/s 703 mmHg 58%
    20:00 +13°C° 0 mm 3 m/s 703 mmHg 60%
    21:00 +12°C° 0 mm 3 m/s 703 mmHg 62%
    22:00 +10°C° 0 mm 3 m/s 703 mmHg 63%
    23:00 +10°C° 0 mm 2 m/s 703 mmHg 64%

    1 Juin, Lundi

    Heure Température Précipitation Vent Pression Humidité
    00:00 +9°C° 0 mm 2 m/s 704 mmHg 65%
    01:00 +9°C° 0 mm 2 m/s 704 mmHg 66%
    02:00 +9°C° 0 mm 1 m/s 704 mmHg 67%
    03:00 +9°C° 0 mm 1 m/s 704 mmHg 69%
    04:00 +8°C° 0 mm 1 m/s 704 mmHg 71%
    05:00 +10°C° 0 mm 1 m/s 704 mmHg 66%
    06:00 +12°C° 0 mm 1 m/s 704 mmHg 60%
    07:00 +14°C° 0 mm 1 m/s 704 mmHg 55%
    08:00 +15°C° 0 mm 1 m/s 704 mmHg 50%
    09:00 +17°C° 0 mm 2 m/s 705 mmHg 45%
    10:00 +19°C° 0 mm 2 m/s 705 mmHg 40%
    11:00 +19°C° 0 mm 2 m/s 705 mmHg 38%
    12:00 +20°C° 0 mm 2 m/s 704 mmHg 36%
    13:00 +21°C° 0 mm 2 m/s 704 mmHg 34%
    14:00 +21°C° 0 mm 3 m/s 704 mmHg 36%
    15:00 +20°C° 0 mm 3 m/s 704 mmHg 38%
    16:00 +20°C° 0 mm 3 m/s 704 mmHg 40%
    17:00 +19°C° 0 mm 3 m/s 704 mmHg 47%
    18:00 +18°C° 0 mm 3 m/s 704 mmHg 54%
    19:00 +17°C° 0 mm 2 m/s 704 mmHg 61%
    20:00 +15°C° 0 mm 2 m/s 704 mmHg 65%
    21:00 +14°C° 0 mm 2 m/s 704 mmHg 69%
    22:00 +13°C° 0 mm 1 m/s 704 mmHg 73%
    23:00 +12°C° 0 mm 1 m/s 705 mmHg 75%

    2 Juin, Mardi

    Heure Température Précipitation Vent Pression Humidité
    00:00 +12°C° 0 mm 1 m/s 705 mmHg 78%
    01:00 +11°C° 0 mm 1 m/s 705 mmHg 80%
    02:00 +11°C° 0 mm 1 m/s 705 mmHg 81%
    03:00 +9°C° 0 mm 0 m/s 706 mmHg 81%
    04:00 +9°C° 0 mm 0 m/s 706 mmHg 82%
    05:00 +11°C° 0 mm 0 m/s 706 mmHg 74%
    06:00 +13°C° 0 mm 0 m/s 707 mmHg 67%
    07:00 +15°C° 0 mm 0 m/s 707 mmHg 60%
    08:00 +19°C° 0 mm 1 m/s 708 mmHg 53%
    09:00 +21°C° 0 mm 1 m/s 708 mmHg 46%
    10:00 +22°C° 0 mm 1 m/s 708 mmHg 39%
    11:00 +23°C° 0 mm 2 m/s 708 mmHg 38%
    12:00 +24°C° 0 mm 2 m/s 708 mmHg 36%
    13:00 +24°C° 0 mm 2 m/s 707 mmHg 34%
    14:00 +25°C° 0 mm 2 m/s 707 mmHg 35%
    15:00 +25°C° 0 mm 2 m/s 707 mmHg 35%
    16:00 +25°C° 0 mm 2 m/s 706 mmHg 36%
    17:00 +23°C° 0 mm 2 m/s 706 mmHg 41%
    18:00 +22°C° 0 mm 1 m/s 706 mmHg 46%
    19:00 +20°C° 0 mm 1 m/s 706 mmHg 51%
    20:00 +19°C° 0 mm 1 m/s 706 mmHg 54%
    21:00 +16°C° 0 mm 1 m/s 706 mmHg 57%
    22:00 +15°C° 0 mm 1 m/s 706 mmHg 60%
    23:00 +14°C° 0 mm 1 m/s 705 mmHg 62%

    3 Juin, Mercredi

    Heure Température Précipitation Vent Pression Humidité
    00:00 +14°C° 0 mm 1 m/s 705 mmHg 65%
    01:00 +13°C° 0 mm 1 m/s 705 mmHg 67%
    02:00 +13°C° 0 mm 1 m/s 705 mmHg 69%
    03:00 +12°C° 0 mm 1 m/s 705 mmHg 71%
    04:00 +12°C° 0 mm 1 m/s 704 mmHg 73%
    05:00 +13°C° 0 mm 1 m/s 705 mmHg 68%
    06:00 +15°C° 0 mm 1 m/s 705 mmHg 63%
    07:00 +18°C° 0 mm 1 m/s 705 mmHg 59%
    08:00 +20°C° 0 mm 1 m/s 705 mmHg 53%
    09:00 +22°C° 0 mm 1 m/s 705 mmHg 47%
    10:00 +23°C° 0 mm 1 m/s 705 mmHg 42%
    11:00 +24°C° 0 mm 2 m/s 705 mmHg 40%
    12:00 +25°C° 0 mm 2 m/s 705 mmHg 38%
    13:00 +26°C° 0 mm 3 m/s 704 mmHg 37%
    14:00 +26°C° 0 mm 3 m/s 704 mmHg 37%
    15:00 +25°C° 0 mm 2 m/s 703 mmHg 37%
    16:00 +25°C° 0 mm 2 m/s 703 mmHg 38%
    17:00 +24°C° 0 mm 2 m/s 703 mmHg 44%
    18:00 +21°C° 0 mm 2 m/s 702 mmHg 50%
    19:00 +21°C° 0 mm 1 m/s 702 mmHg 56%
    20:00 +20°C° 0 mm 1 m/s 702 mmHg 58%
    21:00 +19°C° 0 mm 1 m/s 702 mmHg 61%
    22:00 +18°C° 0 mm 1 m/s 701 mmHg 63%
    23:00 +15°C° 0 mm 0 m/s 701 mmHg 64%
    Voir plus